RED DIAMOND

Last updated on Fri Jul 21 2017 00:18:26 GMT+0000 (Coordinated Universal Time)

1 42783U 17036U 17200.92359987 .00001449 00000-0 69230-4 0 9995 2 42783 97.4482 260.3730 0013562 153.1908 207.0031 15.20557876 4008
UTC large
Height (km)
Speed (km/s)
/
Latitude / Longitude
Inclination (degrees)
Orbital Period (minutes)
Azimuth
Elevation
Range (km)
Doppler Factor

Next 0 passes for location: London (51.5072 / 0.1276)

Sorry there are no passes over London.